Simultaneous Nadir Overpasses (SNOs) Predictions

Prediction of SNOs between NOAA-21 and METOP-B Satellite Orbit:

Table of predicted SNOs for the next 14.0 days since TLE Epoch: 4/23/2024
Index Date (NOAA-21) Time (NOAA-21) Lat,Lon (NOAA-21) SZA (NOAA-21 ) Date (METOP-B) Time (METOP-B) Lat,Lon (METOP-B) SZA (METOP-B ) Distance(km) Time Diff (sec)
1 05/06/2024 14:16:00 73.91, -45.01 57.33 05/06/2024 14:17:06 73.82, -42.10 57.09 90.68 66
2 05/06/2024 15:06:42 -73.80, 122.57 122.81 05/06/2024 15:07:49 -73.77, 125.09 122.98 78.50 67
3 05/06/2024 15:57:23 73.57, -69.58 56.93 05/06/2024 15:58:33 73.55, -68.08 56.82 47.40 70
4 05/06/2024 16:48:06 -73.51, 97.87 123.15 05/06/2024 16:49:17 -73.44, 99.00 123.29 36.75 71
5 05/06/2024 17:38:47 73.28, -94.29 56.59 05/06/2024 17:40:00 73.27, -94.04 56.55 8.18 73
6 05/06/2024 18:29:30 -73.22, 73.15 123.49 05/06/2024 18:30:43 -73.21, 73.16 123.52 1.43 73
7 05/06/2024 19:20:15 73.19,-119.46 56.47 05/06/2024 19:21:23 73.19,-119.55 56.46 2.90 68
8 05/06/2024 20:11:00 -73.23, 47.76 123.50 05/06/2024 20:12:04 -73.23, 47.87 123.52 3.45 64
9 05/06/2024 21:01:45 73.20,-144.86 56.46 05/06/2024 21:02:44 73.21,-144.84 56.46 1.45 59
10 05/06/2024 21:52:29 -73.19, 22.48 123.56 05/06/2024 21:53:26 -73.21, 22.47 123.56 1.70 57
11 05/06/2024 22:43:15 73.21,-170.25 56.45 05/06/2024 22:44:06 73.18,-170.24 56.42 2.68 51
12 05/06/2024 23:33:59 -73.20, -2.91 123.57 05/06/2024 23:34:48 -73.18, -2.93 123.60 2.45 49
13 05/07/2024 00:24:45 73.22, 164.36 56.44 05/07/2024 00:25:27 73.21, 164.46 56.42 3.61 42
14 05/07/2024 01:15:29 -73.21, -28.31 123.58 05/07/2024 01:16:09 -73.20, -28.22 123.60 2.83 40
15 05/07/2024 02:06:14 73.17, 139.08 56.38 05/07/2024 02:06:49 73.18, 139.06 56.37 0.54 35



Historial Predications of SNOs between NOAA-21 and METOP-B
